Flag for U.S.A. Weather past 2 weeks in Frankfort, Kentucky, U.S.A.

Now
55 °F

Clear.


Feels Like: 55 °F
Forecast: 57 / 83 °F
Wind: 3 mph from North

Location: Capital City Airport

Current Time: Jul 25, 2014 at 7:24:32 AM

Latest Report: Jul 25, 2014 at 6:53 AM


Visibility: 10 mi

Pressure: 30.07 "Hg

Humidity: 93%

Dew point: 53 °F

Location of FrankfortLocation

Historic Weather in Frankfort — Graph

°F

Frankfort temperature yesterday

Maximum temperature yesterday: 77 °F (at 6:53 PM)
Minimum temperature yesterday: 64 °F (at 7:53 AM)
Average temperature yesterday: 71 °F

Past Weeks' High & Low Weather Summary

 TemperatureHumidityPressure
High92 °F (Jul 13, 2:53 PM)100% (Jul 20, 4:01 AM)30.19 "Hg (Jul 20, 4:01 AM)
Low52 °F (Jul 16, 6:53 AM)36% (Jul 10, 5:53 PM)29.82 "Hg (Jul 14, 6:53 PM)
Average72 °F74%30.03 "Hg
* Reported Jul 10 5:53 AM — Jul 25 5:53 AM, Frankfort, Weather by CustomWeather, © 2014

Note: Actual official high and low records may vary slightly from our data, if they occured in-between our weather recording intervals... More about our weather records

Advertising

Frankfort weather history for previous 24 hours

 ConditionsComfort  
Time TempWeatherWind HumidityBarometerVisibility
5:53 AM
Jul 25
55 °FClear.No wind93%30.05 "Hg10 mi
4:53 AM56 °FPassing clouds.No wind93%30.05 "Hg10 mi
3:53 AM58 °FClear.No wind90%30.03 "Hg10 mi
2:53 AM57 °FClear.No wind93%30.04 "Hg10 mi
1:53 AM61 °FClear.3 mph83%30.04 "Hg10 mi
12:53 AM60 °FClear.No wind86%30.03 "Hg10 mi
11:53 PM
Jul 24
67 °FPassing clouds.3 mph66%30.03 "Hg10 mi
10:53 PM69 °FOvercast.5 mph66%30.05 "Hg10 mi
9:53 PM68 °FPartly sunny.No wind68%30.03 "Hg10 mi
8:53 PM72 °FSunny.5 mph53%30.02 "Hg10 mi
7:53 PM76 °FPartly sunny.6 mph47%29.99 "Hg10 mi
6:53 PM77 °FSunny.7 mph45%29.98 "Hg10 mi
5:53 PM75 °FPassing clouds.7 mph47%29.99 "Hg10 mi
4:53 PM76 °FPartly sunny.10 mph47%30.01 "Hg10 mi
3:53 PM76 °FScattered clouds.7 mph47%30.02 "Hg10 mi
2:53 PM74 °FPartly sunny.9 mph50%30.02 "Hg10 mi
1:53 PM73 °FPartly sunny.9 mph53%30.02 "Hg10 mi
12:53 PM72 °FPartly sunny.10 mph57%30.03 "Hg10 mi
11:53 AM71 °FScattered clouds.9 mph61%30.03 "Hg10 mi
10:53 AM70 °FPartly sunny.9 mph66%30.02 "Hg10 mi
9:53 AM68 °FScattered clouds.7 mph70%30.01 "Hg10 mi
8:53 AM66 °FSunny.8 mph73%30.00 "Hg10 mi
7:53 AM64 °FOvercast.9 mph81%29.99 "Hg10 mi
7:03 AM65 °FMostly cloudy.10 mph81%30.00 "Hg10 mi
Weather by CustomWeather, © 2014

See weather overviewHow to use our weather pages